"TOA5","CR1000","CR1000","34242","CR1000.Std.27","CPU:OSU-82718.CR1","48376","Table5"
"TIMESTAMP","RECORD","AWS","AWD","SIG","Gust","AvgAT","MaxAT","MinAT","AvgRH","AvgBP","TotRN_5","DailyRN","Batt"
"TS","RN","MPH","Deg","Deg","MPH","Deg_F","Deg_F","Deg_F","%RH","Inch","inch","","Vdc"
"","","WVc","WVc","WVc","Max","Avg","Max","Min","Avg","Avg","Tot","Smp","Avg"
"2023-12-01 00:00:00",314582,3.826,203.5,20.49,6.803,45.77,45.74,45.8,97.9,29.87,0,0,11.64
"2023-12-01 00:05:00",314583,4.737,204,20.24,7.697,45.82,45.77,45.88,97.9,29.87,0,0,11.64
"2023-12-01 00:10:00",314584,4.781,196.2,19.11,7.22,45.94,45.88,45.99,97.9,29.86,0,0,11.64
"2023-12-01 00:15:00",314585,3.347,193.2,20.76,5.58,45.98,45.96,45.99,97.8,29.86,0,0,11.63
"2023-12-01 00:20:00",314586,3.694,190.1,20.4,4.954,45.95,45.88,45.99,97.8,29.86,0,0,11.64
"2023-12-01 00:25:00",314587,3.362,185.4,23.03,4.864,45.84,45.77,45.88,97.8,29.86,0,0,11.63
"2023-12-01 00:30:00",314588,3.221,190.6,21.2,5.133,45.8,45.77,45.85,98,29.86,0,0,11.63
"2023-12-01 00:35:00",314589,7.411,219.5,20.76,16.52,45.97,45.8,46.23,97.9,29.86,0,0,11.63
"2023-12-01 00:40:00",314590,10.09,214.1,16.31,18.4,46.54,46.23,46.75,95.6,29.85,0,0,11.63
"2023-12-01 00:45:00",314591,6.752,209.1,17.85,10.2,46.75,46.75,46.8,94,29.85,0,0,11.63
"2023-12-01 00:50:00",314592,8.28,236.2,14.7,14.14,46.81,46.75,46.99,93.6,29.85,0,0,11.63
"2023-12-01 00:55:00",314593,9.51,225.2,14.48,13.3,47.24,46.99,47.5,94.1,29.85,0,0,11.63
"2023-12-01 01:00:00",314594,5.845,208.5,25.53,10.08,47.56,47.5,47.61,94.2,29.85,0,0,11.63
"2023-12-01 01:05:00",314595,6.227,194.5,23.49,10.32,47.45,47.37,47.5,94.5,29.84,0,0,11.63
"2023-12-01 01:10:00",314596,3.988,187.1,18.87,7.966,47.26,47.18,47.4,94.6,29.84,0,0,11.63
"2023-12-01 01:15:00",314597,4.321,211.1,24.75,7.459,47.18,47.13,47.21,95,29.84,0,0,11.63
"2023-12-01 01:20:00",314598,6.22,235.2,18.67,11.6,47.42,47.21,47.72,94.8,29.84,0,0,11.63
"2023-12-01 01:25:00",314599,9.24,240.3,15.98,13.39,48.12,47.72,48.48,92.2,29.84,0,0,11.63
"2023-12-01 01:30:00",314600,10.7,241.2,16.99,15.99,48.68,48.48,49,87.8,29.83,0,0,11.63
"2023-12-01 01:35:00",314601,12.12,243.7,13.43,17.81,49.27,49,49.54,85.3,29.83,0,0,11.63
"2023-12-01 01:40:00",314602,9.85,240,13.25,18.55,49.54,49.46,49.56,85.4,29.83,0,0,11.63
"2023-12-01 01:45:00",314603,9.04,235.8,16.84,14.17,49.44,49.35,49.46,86.3,29.83,0,0,11.63
"2023-12-01 01:50:00",314604,9.65,233.7,19.64,16.76,49.23,49.13,49.35,85.8,29.83,0,0,11.62
"2023-12-01 01:55:00",314605,11.49,239.4,14.64,18.58,49.31,49.16,49.49,84.8,29.83,0,0,11.62
"2023-12-01 02:00:00",314606,11.08,235.4,16.43,19.09,49.63,49.49,49.69,84.5,29.83,0,0,11.62
"2023-12-01 02:05:00",314607,9.96,240.7,14.57,19.8,49.76,49.68,49.79,85.5,29.83,0.01,0.01,11.62
"2023-12-01 02:10:00",314608,14.06,240.5,13.62,24.81,49.81,49.58,49.88,85.8,29.83,0,0.01,11.62
"2023-12-01 02:15:00",314609,18.21,236,13.41,29.82,48.9,48.51,49.56,74.65,29.83,0,0.01,11.62
"2023-12-01 02:20:00",314610,11.31,244.3,17.9,18.85,47.93,47.53,48.51,78.08,29.83,0.01,0.02,11.62
"2023-12-01 02:25:00",314611,11.06,234.7,15.03,16.02,47.54,47.52,47.6,80.3,29.83,0,0.02,11.62
"2023-12-01 02:30:00",314612,8.65,235.4,17.09,16.55,47.46,47.38,47.52,82.2,29.83,0.01,0.03,11.62
"2023-12-01 02:35:00",314613,10.34,235.3,15.94,18.05,47.33,47.29,47.4,83.5,29.83,0.01,0.04,11.62
"2023-12-01 02:40:00",314614,10.81,227.9,16.32,15.42,47.35,47.29,47.4,85.5,29.83,0,0.04,11.62
"2023-12-01 02:45:00",314615,15.28,237.2,13.15,23.14,47.34,47.26,47.48,86.6,29.83,0.01,0.05,11.62
"2023-12-01 02:50:00",314616,15.99,226.3,14.7,24.81,47.41,47.4,47.48,88.3,29.83,0,0.05,11.62
"2023-12-01 02:55:00",314617,12.09,220,17.04,22.55,47.4,47.4,47.4,89.9,29.82,0.01,0.06,11.62
"2023-12-01 03:00:00",314618,11.68,225.7,17.6,19.95,47.5,47.4,47.61,91.5,29.82,0,0.06,11.62
"2023-12-01 03:05:00",314619,11.36,218.1,18.97,22.16,47.66,47.61,47.72,92.9,29.81,0,0.06,11.62
"2023-12-01 03:10:00",314620,13.91,215.3,20.1,24.93,47.66,47.61,47.72,93.9,29.81,0.01,0.07,11.62
"2023-12-01 03:15:00",314621,12.82,210.9,20.79,21.56,47.52,47.45,47.61,94.9,29.8,0,0.07,11.61
"2023-12-01 03:20:00",314622,12.01,205,23.83,18.67,47.47,47.42,47.48,95.9,29.8,0.01,0.08,11.61
"2023-12-01 03:25:00",314623,11.61,209.4,24.92,23.05,47.47,47.4,47.48,96.6,NaN,0.01,0.09,11.61
"2023-12-01 03:30:00",314624,14.57,208.3,20.81,27.98,47.46,47.4,47.48,97,NaN,0,0.09,11.61
"2023-12-01 03:35:00",314625,12.07,202,27.56,20.49,47.43,47.4,47.48,97.6,NaN,0.01,0.1,11.6
"2023-12-01 03:40:00",314626,13.56,197.9,24.07,20.85,47.52,47.42,47.61,98.3,29.78,0.01,0.11,11.6
"2023-12-01 03:45:00",314627,12.2,202.2,24.54,23.32,47.66,47.61,47.75,98.6,29.77,0,0.11,11.61
"2023-12-01 03:50:00",314628,16.69,209.7,20.79,27.56,47.93,47.78,48.05,98.9,29.76,0,0.11,11.61
"2023-12-01 03:55:00",314629,17.54,203.5,23,31.7,48,47.94,48.05,98.4,29.76,0,0.11,11.61
"2023-12-01 04:00:00",314630,16.05,209,21.63,27.11,47.86,47.83,47.94,98.2,29.75,0,0.11,11.61
"2023-12-01 04:05:00",314631,12.66,206,25.61,23.68,47.94,47.84,47.95,98.6,29.75,0.01,0.12,11.61
"2023-12-01 04:10:00",314632,13.36,198.3,26.72,28.48,47.95,47.95,47.96,98.7,29.75,0.01,0.13,11.61
"2023-12-01 04:15:00",314633,15.15,204.6,21.99,28.63,47.96,47.95,47.99,99,29.74,0.01,0.14,11.61
"2023-12-01 04:20:00",314634,15.81,204.3,23.6,28.15,47.99,47.96,48.04,99.3,29.74,0.02,0.16,11.61
"2023-12-01 04:25:00",314635,14.55,203.4,23.75,25.53,48.03,47.96,48.07,99.5,29.73,0.01,0.17,11.61
"2023-12-01 04:30:00",314636,15.27,209,23.58,30.36,48.07,48.01,48.07,99.7,29.73,0.02,0.19,11.61
"2023-12-01 04:35:00",314637,17.17,201.8,21.92,36.77,47.97,47.96,48.02,99.8,29.72,0.03,0.22,11.61
"2023-12-01 04:40:00",314638,15.49,204.1,24.3,29.73,48.03,47.96,48.18,100,29.72,0.02,0.24,11.61
"2023-12-01 04:45:00",314639,16.25,213.6,21.37,29.76,48.41,48.18,48.62,100,29.71,0.01,0.25,11.61
"2023-12-01 04:50:00",314640,16.81,207.2,21.93,30.09,48.79,48.62,48.94,100,29.71,0,0.25,11.61
"2023-12-01 04:55:00",314641,20.33,215.2,18.18,33.79,49.16,48.94,49.38,100,29.71,0.02,0.27,11.61
"2023-12-01 05:00:00",314642,18.06,214.5,21.03,36.24,49.51,49.38,49.59,100,29.71,0.02,0.29,11.61
"2023-12-01 05:05:00",314643,19.49,221.5,20.12,31.46,49.72,49.59,49.81,100,29.7,0.02,0.31,11.6
"2023-12-01 05:10:00",314644,18.21,235.7,21.78,30.87,49.89,49.81,49.92,100,29.7,0.02,0.33,11.61
"2023-12-01 05:15:00",314645,14.17,261,29.28,24.9,50.07,49.92,50.24,100,29.73,0.02,0.35,11.6
"2023-12-01 05:20:00",314646,17.16,269.3,18.35,27.8,50.48,50.24,50.68,100,29.76,0.04,0.39,11.6
"2023-12-01 05:25:00",314647,16.55,262.7,22.78,33.61,50.77,50.68,50.95,100,29.76,0,0.39,11.6
"2023-12-01 05:30:00",314648,13.24,238.9,14.87,24.49,50.78,50.68,50.95,100,29.75,0,0.39,11.6
"2023-12-01 05:35:00",314649,11.36,260.4,15.02,20.31,50.17,49.67,50.68,98.6,29.74,0,0.39,11.6
"2023-12-01 05:40:00",314650,9.83,264,14.37,15,49.61,49.57,49.67,97,29.75,0,0.39,11.61
"2023-12-01 05:45:00",314651,9.84,266.1,14.51,16.32,49.72,49.67,49.81,95.7,29.75,0,0.39,11.61
"2023-12-01 05:50:00",314652,9.66,269.5,15.12,16.76,50.12,49.81,50.57,94.7,29.76,0,0.39,11.61
"2023-12-01 05:55:00",314653,9.85,286.4,14.46,16.7,51.15,50.57,51.65,94.7,29.76,0,0.39,11.6
"2023-12-01 06:00:00",314654,11.37,288.5,15.18,20.31,51.95,51.65,52.22,93.1,29.76,0,0.39,11.6
"2023-12-01 06:05:00",314655,11.46,286.7,13.53,18.16,52.4,52.22,52.52,91.9,29.77,0,0.39,11.6
"2023-12-01 06:10:00",314656,14.21,301.3,13.22,24.99,52.42,52.3,52.52,86.9,29.77,0,0.39,11.6
"2023-12-01 06:15:00",314657,16.92,302.8,12.36,24.52,52.72,52.52,52.95,81.1,29.77,0,0.39,11.6
"2023-12-01 06:20:00",314658,14.85,305.1,11.24,20.49,53.02,52.95,53.06,79.7,29.78,0,0.39,11.6
"2023-12-01 06:25:00",314659,16.89,305.8,10.84,22.94,53.06,52.95,53.14,78.42,29.78,0,0.39,11.6
"2023-12-01 06:30:00",314660,15.67,305.6,10.07,25.05,53.08,52.95,53.14,78.44,29.79,0,0.39,11.6
"2023-12-01 06:35:00",314661,13.21,296.4,11.21,19.8,52.7,52.52,52.95,80.2,29.79,0,0.39,11.6
"2023-12-01 06:40:00",314662,11.9,292.6,13.38,20.25,52.45,52.41,52.52,81.6,29.79,0,0.39,11.6
"2023-12-01 06:45:00",314663,10.2,296.7,11.77,15.75,52.48,52.41,52.53,82.6,29.8,0,0.39,11.6
"2023-12-01 06:50:00",314664,14.48,300.7,12.46,23.26,52.58,52.5,52.74,81.7,29.8,0,0.39,11.6
"2023-12-01 06:55:00",314665,16.56,304,11.15,25.56,52.98,52.74,53.12,78.84,29.8,0,0.39,11.6
"2023-12-01 07:00:00",314666,14.31,303.9,12,21.41,53.16,53.12,53.18,78.33,29.81,0,0.39,11.6
"2023-12-01 07:05:00",314667,14.93,300.5,10.87,21.18,53.15,53.1,53.18,79.24,29.81,0,0.39,11.6
"2023-12-01 07:10:00",314668,17.91,300.8,10.57,24.31,53.15,53.08,53.21,76.48,29.81,0,0.39,11.6
"2023-12-01 07:15:00",314669,14.05,300.5,11.35,20.94,53.21,53.18,53.27,77.45,29.81,0,0.39,11.6
"2023-12-01 07:20:00",314670,11.09,295.3,13.12,17,53.24,53.19,53.3,78.68,29.81,0,0.39,11.6
"2023-12-01 07:25:00",314671,10.38,285.6,15.55,16.29,53.1,52.98,53.2,80.9,29.81,0,0.39,11.6
"2023-12-01 07:30:00",314672,10.93,287.7,13.82,17.78,52.96,52.88,52.99,79.4,29.81,0,0.39,11.6
"2023-12-01 07:35:00",314673,12.33,280.9,15.88,19.51,52.76,52.09,53.02,80.8,29.81,0.01,0.4,11.6
"2023-12-01 07:40:00",314674,14.23,297.6,12.4,23.83,51.64,51.09,52.09,82.6,29.82,0.01,0.41,11.6
"2023-12-01 07:45:00",314675,14.25,292.2,16.51,22.34,50.48,50.15,51.11,84.9,29.82,0.02,0.43,11.6
"2023-12-01 07:50:00",314676,11.89,308.2,14.78,17.78,49.92,49.81,50.15,87,29.82,0,0.43,11.6
"2023-12-01 07:55:00",314677,11.61,307,8.47,16.17,49.72,49.7,49.81,88.6,29.82,0,0.43,11.6
"2023-12-01 08:00:00",314678,9.35,306.1,11.73,13.07,49.98,49.73,50.24,89.3,29.83,0,0.43,11.6
"2023-12-01 08:05:00",314679,11.53,294.7,13.85,21.77,50.61,50.24,51.11,86.9,29.83,0,0.43,11.61
"2023-12-01 08:10:00",314680,11.52,313.3,18.47,21.15,51.76,51.11,51.98,83,29.83,0,0.43,11.61
"2023-12-01 08:15:00",314681,13.11,300.3,12.97,20.04,52.09,51.95,52.28,81.4,29.83,0,0.43,11.61
"2023-12-01 08:20:00",314682,10.86,287.8,14.81,17.69,52.39,52.28,52.52,79.51,29.83,0,0.43,11.61
"2023-12-01 08:25:00",314683,12.91,287.8,14.04,19.18,52.62,52.49,52.74,78.38,29.83,0,0.43,11.61
"2023-12-01 08:30:00",314684,9.8,283.4,15.11,18.13,52.74,52.74,52.76,79.01,29.83,0,0.43,11.6
"2023-12-01 08:35:00",314685,13.15,297.2,12.57,21.5,52.78,52.71,52.87,79.57,NaN,0,0.43,11.59
"2023-12-01 08:40:00",314686,13.1,294,13.42,18.7,52.85,52.85,52.9,79.4,29.84,0,0.43,11.6
"2023-12-01 08:45:00",314687,12.58,279.7,15.55,23.44,52.94,52.87,52.95,79.5,NaN,0,0.43,11.62
"2023-12-01 08:50:00",314688,12.04,283.7,14.62,16.88,52.95,52.93,52.95,79.53,29.85,0,0.43,11.64
"2023-12-01 08:55:00",314689,10.74,281.9,15.18,19.03,52.93,52.87,52.95,79.92,29.85,0,0.43,11.65
"2023-12-01 09:00:00",314690,12.55,290.7,13.86,23,52.85,52.82,52.87,79.77,29.86,0,0.43,11.62
"2023-12-01 09:05:00",314691,10.64,289.1,13.35,16.73,52.73,52.68,52.85,81.1,29.86,0,0.43,11.64
"2023-12-01 09:10:00",314692,10.55,278.2,13.99,17.42,52.91,52.74,53.17,81.5,29.86,0,0.43,11.93
"2023-12-01 09:15:00",314693,9.95,275.5,16.58,16.17,53.35,53.17,53.47,81.3,29.86,0,0.43,12.19
"2023-12-01 09:20:00",314694,13.11,276.1,16.44,23.74,53.44,53.39,53.5,80.5,29.86,0,0.43,12.29
"2023-12-01 09:25:00",314695,12.55,285.8,14.78,19.36,53.52,53.4,53.59,77.76,29.86,0,0.43,12.27
"2023-12-01 09:30:00",314696,11.85,285.8,14.66,17.18,53.58,53.56,53.59,78.01,29.87,0,0.43,12.28
"2023-12-01 09:35:00",314697,10.37,284.1,15.33,18.28,53.58,53.53,53.6,78.68,29.87,0,0.43,12.25
"2023-12-01 09:40:00",314698,10.35,285.4,14.4,18.02,53.48,53.43,53.53,79.38,29.87,0,0.43,12.17
"2023-12-01 09:45:00",314699,9.96,281.5,14.19,16.29,53.48,53.43,53.55,79.76,29.87,0,0.43,12.16
"2023-12-01 09:50:00",314700,10.88,278.7,13.52,15.69,53.61,53.55,53.77,80,29.87,0,0.43,12.3
"2023-12-01 09:55:00",314701,9.76,277.1,14.86,14.71,53.99,53.77,54.09,80.4,29.87,0,0.43,12.59
"2023-12-01 10:00:00",314702,9.44,267.4,15.58,15,54.09,54.04,54.15,80.2,29.87,0,0.43,12.5
"2023-12-01 10:05:00",314703,12.97,273.8,14.46,22.07,53.98,53.96,54.07,79.55,29.87,0,0.43,12.41
"2023-12-01 10:10:00",314704,12.6,279.9,15.27,20.7,53.98,53.96,54.01,77.91,29.88,0,0.43,12.31
"2023-12-01 10:15:00",314705,10.71,285.4,14.4,16.76,53.83,53.77,53.96,78.07,29.88,0,0.43,12.22
"2023-12-01 10:20:00",314706,11.53,286.9,14.33,19.51,53.86,53.82,53.88,78.82,29.88,0,0.43,12.27
"2023-12-01 10:25:00",314707,12.44,285.1,16.24,25.38,53.94,53.85,54.04,77.31,29.88,0,0.43,12.31
"2023-12-01 10:30:00",314708,12.67,292,13.21,20.1,54.12,54.01,54.2,77.23,29.89,0,0.43,12.35
"2023-12-01 10:35:00",314709,9.74,289.6,15.47,15.66,54.2,54.18,54.23,78.4,29.89,0,0.43,12.37
"2023-12-01 10:40:00",314710,9.25,289.2,13.72,14.85,54.23,54.2,54.28,79.07,29.89,0,0.43,12.37
"2023-12-01 10:45:00",314711,8.3,289.8,14.07,13.99,54.21,54.2,54.23,79.34,29.89,0,0.43,12.35
"2023-12-01 10:50:00",314712,8.2,286,14.2,12.41,54.16,54.09,54.23,79.89,29.89,0,0.43,12.3
"2023-12-01 10:55:00",314713,7.028,278.7,13.95,11.87,54.16,54.12,54.2,80.6,29.9,0,0.43,12.29
"2023-12-01 11:00:00",314714,8.14,277.6,12.24,11.9,54.17,54.12,54.2,80.5,29.89,0,0.43,12.31
"2023-12-01 11:05:00",314715,10.42,277.9,17.14,18.16,54.08,53.99,54.18,79.82,29.89,0,0.43,12.27
"2023-12-01 11:10:00",314716,11.01,282.1,14.74,17.15,54.08,54.04,54.12,78.69,29.89,0,0.43,12.29
"2023-12-01 11:15:00",314717,12.97,277.3,12.75,20.28,54.09,54.09,54.12,77.51,29.88,0,0.43,12.31
"2023-12-01 11:20:00",314718,9.54,285.5,15.21,18.73,54.07,54.01,54.09,77.46,29.88,0,0.43,12.3
"2023-12-01 11:25:00",314719,8.56,285.4,17.09,13.99,54.09,54.07,54.09,78.15,29.89,0,0.43,12.3
"2023-12-01 11:30:00",314720,8.96,285,14.89,14.74,54.07,54.01,54.09,79.02,29.89,0,0.43,12.24
"2023-12-01 11:35:00",314721,9.32,292.2,14.76,14.41,53.99,53.96,54.04,80.3,29.89,0,0.43,12.2
"2023-12-01 11:40:00",314722,10.7,288,15.78,18.16,53.85,53.66,53.96,80.8,29.89,0,0.43,12.15
"2023-12-01 11:45:00",314723,11.75,300.8,11.1,17.3,53.57,53.39,53.69,80.9,29.9,0,0.43,12.11
"2023-12-01 11:50:00",314724,11.18,297.8,11.34,17.51,53.35,53.28,53.42,80.8,29.9,0,0.43,12.18
"2023-12-01 11:55:00",314725,11.03,301.3,12.47,16.82,53.52,53.42,53.61,81.3,29.9,0,0.43,12.3
"2023-12-01 12:00:00",314726,13.45,303.1,9.69,18.05,53.64,53.58,53.69,80,29.9,0,0.43,12.36
"2023-12-01 12:05:00",314727,14.15,303.2,10.53,19.57,53.58,53.42,53.66,79.8,29.9,0,0.43,12.31
"2023-12-01 12:10:00",314728,11.4,306.3,10.43,15.72,53.26,53.2,53.42,80.1,29.91,0,0.43,12.31
"2023-12-01 12:15:00",314729,14.26,301.2,11.41,21.83,53.41,53.28,53.55,77.91,29.91,0,0.43,12.34
"2023-12-01 12:20:00",314730,14.5,302.6,10.05,19.57,53.68,53.55,53.77,76.33,29.91,0,0.43,12.38
"2023-12-01 12:25:00",314731,13.57,299.4,9.94,20.1,53.72,53.66,53.77,76.03,29.91,0,0.43,12.39
"2023-12-01 12:30:00",314732,11.29,298.4,10.86,19,53.69,53.66,53.74,75.57,29.92,0,0.43,12.36
"2023-12-01 12:35:00",314733,10.07,294.6,11.42,17.6,53.66,53.61,53.72,76.73,29.92,0,0.43,12.32
"2023-12-01 12:40:00",314734,10.59,290.9,14.25,16.67,53.48,53.34,53.61,77.48,29.92,0,0.43,12.26
"2023-12-01 12:45:00",314735,11.37,288.4,15.42,17.72,53.28,53.2,53.34,77.04,29.92,0,0.43,12.2
"2023-12-01 12:50:00",314736,11.12,290.9,14.41,16.64,53.07,53.01,53.2,77.4,29.92,0,0.43,12.16
"2023-12-01 12:55:00",314737,10.13,295.6,11.95,15.21,53.11,53.04,53.17,77.03,29.92,0,0.43,12.18
"2023-12-01 13:00:00",314738,10.85,289.4,13.78,15.18,53.22,53.17,53.25,76.6,29.92,0,0.43,12.19
"2023-12-01 13:05:00",314739,9.81,287.6,14.96,16.23,53.31,53.23,53.34,76.22,29.93,0,0.43,12.18
"2023-12-01 13:10:00",314740,8.77,286.4,14.49,15.78,53.33,53.28,53.34,76.21,29.93,0,0.43,12.17
"2023-12-01 13:15:00",314741,8.25,284.5,14.29,13.81,53.34,53.31,53.39,75.97,29.93,0,0.43,12.19
"2023-12-01 13:20:00",314742,7.047,285.4,14.88,11.34,53.43,53.36,53.53,76.19,29.93,0,0.43,12.22
"2023-12-01 13:25:00",314743,7.608,286,12.57,13.93,53.52,53.47,53.55,75.98,29.92,0,0.43,12.25
"2023-12-01 13:30:00",314744,6.542,282.8,13.4,9.52,53.57,53.53,53.61,75.79,29.92,0,0.43,12.25
"2023-12-01 13:35:00",314745,8.82,276.3,14.85,13.12,53.56,53.53,53.61,76.25,29.92,0,0.43,12.23
"2023-12-01 13:40:00",314746,9.39,276.9,12.67,14.44,53.55,53.53,53.61,75.24,29.93,0,0.43,12.2
"2023-12-01 13:45:00",314747,15.52,271.9,14.8,26.07,53.03,51.93,53.66,77.34,29.93,0,0.43,12.17
"2023-12-01 13:50:00",314748,13.96,244.6,14.01,21.71,50.9,50.19,51.93,74.96,NaN,0,0.43,12.14
"2023-12-01 13:55:00",314749,8.05,233.9,13.01,15.3,49.9,49.71,50.19,75.44,NaN,0,0.43,12.14
"2023-12-01 14:00:00",314750,6.631,230.9,10.82,9.49,49.6,49.54,49.71,77.82,NaN,0,0.43,12.17
"2023-12-01 14:05:00",314751,5.408,229.2,12.78,7.22,49.63,49.54,49.71,79.19,29.92,0,0.43,12.2
"2023-12-01 14:10:00",314752,4.718,210.7,13.51,7.369,49.79,49.7,49.85,80.3,29.92,0,0.43,12.24
"2023-12-01 14:15:00",314753,3.185,208.3,14.24,4.984,49.95,49.85,50.06,81.2,29.91,0,0.43,12.25
"2023-12-01 14:20:00",314754,3.016,210.8,15.48,5.222,50.12,50.06,50.16,81.9,29.91,0,0.43,12.24
"2023-12-01 14:25:00",314755,3.797,230,12.55,5.401,50.2,50.14,50.24,82.2,29.91,0,0.43,12.23
"2023-12-01 14:30:00",314756,4.353,228.8,11.32,6.445,50.32,50.24,50.38,82.1,29.91,0,0.43,12.21
"2023-12-01 14:35:00",314757,5.195,230,11.54,6.803,50.38,50.35,50.43,82.2,29.92,0,0.43,12.17
"2023-12-01 14:40:00",314758,4.472,239.3,12.82,5.878,50.32,50.24,50.35,83.2,29.92,0.01,0.44,12.11
"2023-12-01 14:45:00",314759,3.279,264.4,9.88,4.328,50.1,49.92,50.24,84.7,29.92,0.01,0.45,12.05
"2023-12-01 14:50:00",314760,6.297,282.3,16.95,15.75,49.92,49.86,50.08,86.8,29.93,0.01,0.46,12.01
"2023-12-01 14:55:00",314761,10.67,292.5,14.12,15.33,49.94,49.81,50.08,89.3,29.93,0.02,0.48,11.97
"2023-12-01 15:00:00",314762,9.66,256.2,18.56,15.03,49.74,49.46,49.81,91.3,29.93,0.02,0.5,11.95
"2023-12-01 15:05:00",314763,8.62,239.7,15.08,12.68,49.03,48.7,49.46,90.8,29.92,0,0.5,11.95
"2023-12-01 15:10:00",314764,7.479,220.5,13.07,10.83,48.52,48.4,48.7,91.1,29.92,0,0.5,11.96
"2023-12-01 15:15:00",314765,5.446,225.5,15.43,8.62,48.4,48.37,48.41,91.3,29.92,0,0.5,11.97
"2023-12-01 15:20:00",314766,4.275,217.2,15.25,5.67,48.43,48.4,48.51,91.9,29.92,0,0.5,11.99
"2023-12-01 15:25:00",314767,4.418,215.8,13,5.759,48.53,48.51,48.59,92.4,29.91,0,0.5,12
"2023-12-01 15:30:00",314768,3.803,215.7,15.52,5.222,48.52,48.51,48.56,93,29.91,0,0.5,12
"2023-12-01 15:35:00",314769,4.457,215.1,12,6.057,48.51,48.51,48.51,93.4,29.91,0,0.5,11.99
"2023-12-01 15:40:00",314770,3.466,211.2,13.34,4.835,48.51,48.51,48.51,93.8,29.91,0,0.5,11.97
"2023-12-01 15:45:00",314771,3.505,213.2,16.67,5.58,48.56,48.51,48.59,94.1,29.91,0,0.5,11.95
"2023-12-01 15:50:00",314772,3.49,214.1,13.39,4.805,48.61,48.59,48.62,94.4,29.91,0,0.5,11.94
"2023-12-01 15:55:00",314773,2.309,201.8,22.94,5.193,48.62,48.62,48.62,94.6,29.91,0,0.5,11.93
"2023-12-01 16:00:00",314774,1.363,177.4,31.48,2.33,48.62,48.62,48.62,94.6,29.91,0,0.5,11.92
"2023-12-01 16:05:00",314775,2.25,183,22.65,4.089,48.63,48.62,48.7,94.8,29.92,0,0.5,11.9
"2023-12-01 16:10:00",314776,1.368,158.5,25.67,2.717,48.7,48.65,48.73,94.9,29.92,0,0.5,11.89
"2023-12-01 16:15:00",314777,1.178,133.6,30.64,2.032,48.74,48.73,48.81,95,29.91,0,0.5,11.88
"2023-12-01 16:20:00",314778,2.059,93.3,13.34,3.612,48.81,48.78,48.83,95.1,29.92,0,0.5,11.87
"2023-12-01 16:25:00",314779,2.693,108.5,17.84,3.88,48.78,48.73,48.81,95.3,29.92,0,0.5,11.85
"2023-12-01 16:30:00",314780,2.617,119.2,18.23,3.642,48.71,48.65,48.75,95.4,29.92,0,0.5,11.85
"2023-12-01 16:35:00",314781,2.755,114,16.42,3.851,48.7,48.62,48.73,95.7,29.92,0,0.5,11.84
"2023-12-01 16:40:00",314782,2.08,131.6,31.8,3.701,48.77,48.7,48.89,96,29.92,0,0.5,11.83
"2023-12-01 16:45:00",314783,3.427,189.1,57.78,6.743,49.01,48.86,49.16,96.2,29.92,0,0.5,11.83
"2023-12-01 16:50:00",314784,6.166,259.7,20.63,8.53,49.31,49.16,49.46,95.8,29.92,0,0.5,11.82
"2023-12-01 16:55:00",314785,4.755,218.6,20.57,7.131,49.49,49.4,49.51,94.4,29.92,0,0.5,11.81
"2023-12-01 17:00:00",314786,3.948,206.9,17.68,5.908,49.49,49.49,49.51,94.1,29.92,0,0.5,11.81
"2023-12-01 17:05:00",314787,4.622,206.2,22.6,7.459,49.5,49.49,49.57,93.9,29.91,0,0.5,11.8
"2023-12-01 17:10:00",314788,3.745,206.1,13.86,5.043,49.57,49.54,49.59,93.8,29.91,0,0.5,11.8
"2023-12-01 17:15:00",314789,5.507,223.7,15.11,8.71,49.73,49.59,49.92,94.2,29.91,0,0.5,11.79
"2023-12-01 17:20:00",314790,6.723,215.5,18.15,12.56,50.12,49.92,50.24,94.5,29.91,0,0.5,11.78
"2023-12-01 17:25:00",314791,5.442,206.2,21.6,10.68,50.22,50.14,50.24,94.1,29.91,0,0.5,11.78
"2023-12-01 17:30:00",314792,5.299,204.1,22.87,10.02,50.14,50.14,50.14,94.1,29.91,0,0.5,11.77
"2023-12-01 17:35:00",314793,5.391,200.7,22.74,7.996,50.13,50.11,50.14,94.2,29.91,0.01,0.51,11.76
"2023-12-01 17:40:00",314794,5.054,203.5,24.48,8.62,50.13,50.11,50.14,94.2,29.91,0,0.51,11.76
"2023-12-01 17:45:00",314795,5.418,204,23.2,9.34,50.14,50.14,50.19,94.1,29.92,0,0.51,11.75
"2023-12-01 17:50:00",314796,6.822,200.2,26.9,13.3,50.18,50.14,50.22,93.7,29.92,0,0.51,11.74
"2023-12-01 17:55:00",314797,7.923,207.6,18.8,11.96,50.14,50.14,50.19,93,29.92,0,0.51,11.73
"2023-12-01 18:00:00",314798,6.722,211.3,21.62,11.48,50.14,50.14,50.14,92.3,29.92,0,0.51,11.73
"2023-12-01 18:05:00",314799,8.33,209.5,23.08,13.75,50.16,50.14,50.25,92,29.92,0,0.51,11.72
"2023-12-01 18:10:00",314800,9.11,215.9,20.29,14.17,50.31,50.24,50.43,92.1,29.92,0,0.51,11.71
"2023-12-01 18:15:00",314801,8.51,216.7,16.08,12.08,50.49,50.41,50.54,92.2,29.92,0,0.51,11.7
"2023-12-01 18:20:00",314802,9.18,217.7,17.43,14.29,50.56,50.54,50.57,92.6,29.92,0,0.51,11.7
"2023-12-01 18:25:00",314803,8.5,211.7,18.36,12.68,50.55,50.51,50.57,92.9,29.92,0,0.51,11.69
"2023-12-01 18:30:00",314804,7.9,217,14.98,12.8,50.56,50.54,50.58,93.6,29.92,0,0.51,11.68
"2023-12-01 18:35:00",314805,7.868,208.8,21.41,16.29,50.6,50.57,50.65,94.2,29.92,0,0.51,11.68
"2023-12-01 18:40:00",314806,8.59,217.5,16.3,15.75,50.76,50.63,50.89,94.9,29.92,0,0.51,11.67
"2023-12-01 18:45:00",314807,8.5,213.9,18.87,14.26,51.01,50.89,51.08,95.1,29.92,0,0.51,11.66
"2023-12-01 18:50:00",314808,8.75,203.8,25.51,15.27,50.99,50.95,51.03,95.1,29.92,0,0.51,11.65
"2023-12-01 18:55:00",314809,7.479,210.2,23.83,14.65,50.94,50.89,51,95.5,29.92,0,0.51,11.64
"2023-12-01 19:00:00",314810,9.53,203.8,18.83,16.88,51.09,51,51.19,96,29.91,0,0.51,11.63
"2023-12-01 19:05:00",314811,8.18,204.4,23.26,17,51.22,51.19,51.25,96.1,NaN,0,0.51,11.63
"2023-12-01 19:10:00",314812,8.54,209.9,21.65,15.6,51.22,51.22,51.25,96.1,NaN,0,0.51,11.62
"2023-12-01 19:15:00",314813,9.16,205.1,21.65,16.58,51.22,51.19,51.22,96.2,29.92,0,0.51,11.61
"2023-12-01 19:20:00",314814,9.23,210.6,19.49,16.05,51.3,51.22,51.33,96.2,29.92,0,0.51,11.62
"2023-12-01 19:25:00",314815,8.51,207.3,20.33,15.42,51.24,51.19,51.3,96.2,29.92,0,0.51,11.62
"2023-12-01 19:30:00",314816,7.618,205.1,24.35,13.93,51.14,51.11,51.22,96.3,29.92,0,0.51,11.62
"2023-12-01 19:35:00",314817,8.09,205,23.96,15.96,51.12,51.11,51.14,96.4,29.92,0,0.51,11.62
"2023-12-01 19:40:00",314818,6.977,206.2,20.1,12.5,51.06,51,51.11,96.5,29.92,0,0.51,11.61
"2023-12-01 19:45:00",314819,6.242,198.1,24.68,12.59,51,51,51.03,96.6,29.92,0,0.51,11.61
"2023-12-01 19:50:00",314820,6.285,197.5,23.74,11.66,50.96,50.89,51,96.6,29.92,0,0.51,11.61
"2023-12-01 19:55:00",314821,5.43,194.7,25.93,9.81,50.83,50.79,50.89,96.7,29.92,0,0.51,11.61
"2023-12-01 20:00:00",314822,4.244,196.2,20.98,8.8,50.72,50.68,50.79,96.8,29.92,0,0.51,11.61
"2023-12-01 20:05:00",314823,4.751,207,24.92,11.01,50.65,50.6,50.68,96.9,29.92,0,0.51,11.61
"2023-12-01 20:10:00",314824,4.941,202.1,26.21,9.16,50.62,50.57,50.65,97,29.93,0,0.51,11.6
"2023-12-01 20:15:00",314825,6.153,206.9,23.21,9.52,50.7,50.62,50.79,97.2,29.93,0,0.51,11.6
"2023-12-01 20:20:00",314826,6.8,199.3,17.85,12.5,50.83,50.79,50.95,97.2,29.92,0,0.51,11.6
"2023-12-01 20:25:00",314827,4.825,190.2,24.42,9.04,50.96,50.92,50.98,97.1,29.92,0,0.51,11.6
"2023-12-01 20:30:00",314828,5.479,183.4,28.12,9.93,50.92,50.89,50.98,97.1,29.92,0,0.51,11.6
"2023-12-01 20:35:00",314829,7.029,186.4,26.66,12.77,51,50.98,51.03,97.1,29.91,0,0.51,11.6
"2023-12-01 20:40:00",314830,6.316,190.8,24.6,12.08,51.02,51,51.08,97.1,29.91,0,0.51,11.6
"2023-12-01 20:45:00",314831,5.996,195.2,22.95,10.8,51.11,51,51.17,97.1,29.91,0,0.51,11.6
"2023-12-01 20:50:00",314832,8.36,185.1,17.75,13.99,51.24,51.14,51.33,97,29.9,0,0.51,11.59
"2023-12-01 20:55:00",314833,7.923,187.9,22.74,15.63,51.33,51.3,51.35,96.7,29.89,0,0.51,11.59
"2023-12-01 21:00:00",314834,7.326,192.9,26.09,13.84,51.37,51.33,51.44,96.7,29.9,0,0.51,11.59